DW8013 Weather Reports


Display with metric or nautical units.
time (UTC)temp
F
wind
direction
speed
MPH
gust
MPH
rain 1hr
in
rain 24hr
in
rain mn
in
humidity
%
barometer
mb
20260506154512 56 5 0.0 0.0 0.00 0.00 0.00 71 1011.2
20260506153012 56 5 0.0 0.0 0.00 0.00 0.00 71 1011.3
20260506151511 56 5 0.0 0.0 0.00 0.00 0.00 72 1011.1
20260506150010 56 5 0.0 0.0 0.00 0.00 0.00 71 1011.2
20260506144508 56 5 0.0 0.0 0.00 0.00 0.00 70 1011.2
20260506143019 56 5 0.0 0.0 0.00 0.00 0.00 69 1011.1
20260506141510 56 5 0.0 0.0 0.00 0.00 0.00 70 1011.1
20260506140007 56 5 0.0 0.0 0.00 0.00 0.00 69 1011.1
20260506134506 56 5 0.0 0.0 0.00 0.00 0.00 69 1011.1
20260506133006 56 5 0.0 0.0 0.00 0.00 0.00 68 1011.1
20260506131505 56 5 0.0 0.0 0.00 0.00 0.00 68 1011.1
20260506130009 56 5 0.0 0.0 0.00 0.00 0.00 69 1011.0
20260506124503 56 5 0.0 0.0 0.00 0.00 0.00 69 1010.9
20260506123002 56 5 0.0 0.0 0.00 0.00 0.00 69 1010.9
20260506121503 56 5 0.0 0.0 0.00 0.00 0.00 69 1010.8
20260506120002 55 5 0.0 0.0 0.00 0.00 0.00 69 1010.7
20260506114600 55 5 0.0 0.0 0.00 0.00 0.00 68 1010.9
20260506113100 55 5 0.0 0.0 0.00 0.00 0.00 69 1010.8
20260506111557 56 5 0.0 0.0 0.00 0.00 0.00 69 1010.7
20260506110058 56 5 0.0 0.0 0.00 0.00 0.00 68 1010.6
20260506104559 56 5 0.0 0.0 0.00 0.00 0.00 67 1010.7
20260506103105 57 5 0.0 0.0 0.00 0.00 0.00 66 1010.6
20260506101554 56 5 0.0 0.0 0.00 0.00 0.00 69 1010.5
20260506100055 56 5 0.0 0.0 0.00 0.00 0.00 68 1010.5
20260506094558 56 5 0.0 0.0 0.00 0.00 0.00 67 1010.4
20260506093052 56 5 0.0 0.0 0.00 0.00 0.00 65 1010.4
20260506091552 56 5 0.0 0.0 0.00 0.00 0.00 64 1010.3
20260506090055 57 5 0.0 0.0 0.00 0.00 0.00 65 1010.2
20260506084604 57 5 0.0 0.0 0.00 0.00 0.00 65 1010.2
20260506083047 56 5 0.0 0.0 0.00 0.00 0.00 68 1010.1
20260506081545 55 5 0.0 0.0 0.00 0.00 0.00 66 1009.9
20260506073040 54 5 0.0 0.0 0.00 0.00 0.00 69 1009.9
20260506071535 53 5 0.0 0.0 0.00 0.00 0.00 71 1009.9
20260506061541 50 5 0.0 0.0 0.00 0.00 0.00 78 1009.8
20260506044510 49 5 0.0 0.0 0.00 0.00 0.00 81 1009.7
20260506043010 49 5 0.0 0.0 0.00 0.00 0.00 82 1009.5
20260506041505 49 5 0.0 0.0 0.00 0.00 0.00 83 1009.6
20260506040005 49 0.0 0.0 0.00 0.00 0.00 84 1009.7
20260506034504 49 5 0.0 0.0 0.00 0.00 0.00 85 1009.6
20260506033005 48 5 0.0 0.0 0.00 0.00 0.00 86 1009.6
20260506031504 48 5 0.0 0.0 0.00 0.00 0.00 86 1009.7
20260506030004 48 5 0.0 0.0 0.00 0.00 0.00 86 1009.7
20260506024503 48 5 0.0 0.0 0.00 0.00 0.00 86 1009.7
20260506023001 48 5 0.0 0.0 0.00 0.00 0.00 86 1009.6
20260506021607 48 5 0.0 0.0 0.00 0.00 0.00 86 1009.7
20260506020059 49 5 0.0 0.0 0.00 0.00 0.00 87 1009.7
20260506014558 49 5 0.0 0.0 0.00 0.00 0.00 87 1009.8
20260506013106 49 5 0.0 0.0 0.00 0.00 0.00 87 1009.8
20260506011606 49 5 0.0 0.0 0.00 0.00 0.00 86 1009.8
20260506010056 49 5 0.0 0.0 0.00 0.00 0.00 86 1010.0
20260506004554 49 5 0.0 0.0 0.00 0.00 0.00 86 1010.0
20260506003054 49 5 0.0 0.0 0.00 0.00 0.00 86 1010.0
20260506001553 49 5 0.0 0.0 0.00 0.00 0.00 85 1010.0
20260506000052 50 5 0.0 0.0 0.00 0.00 0.00 85 1010.2
20260505234600 50 5 0.0 0.0 0.00 0.00 0.00 86 1010.3
20260505233049 50 5 0.0 0.0 0.00 0.00 0.00 86 1010.3
20260505231603 50 5 0.0 0.0 0.00 0.00 0.00 86 1010.4
20260505230052 50 5 0.0 0.0 0.00 0.00 0.00 85 1010.3
20260505224546 50 5 0.0 0.0 0.00 0.00 0.00 85 1010.3
20260505223047 50 5 0.0 0.0 0.00 0.00 0.00 85 1010.3
20260505221546 50 5 0.0 0.0 0.00 0.00 0.00 84 1010.3
20260505220043 50 5 0.0 0.0 0.00 0.00 0.00 84 1010.3
20260505214602 50 5 0.0 0.0 0.00 0.00 0.00 84 1010.4
20260505213041 51 5 0.0 0.0 0.00 0.00 0.00 83 1010.3
20260505211540 51 5 0.0 0.0 0.00 0.00 0.00 83 1010.3
20260505210042 51 5 0.0 0.0 0.00 0.00 0.00 83 1010.3
20260505204537 51 5 0.0 0.0 0.00 0.00 0.00 82 1010.3
20260505203037 51 5 0.0 0.0 0.00 0.00 0.00 81 1010.3
20260505201536 51 5 0.0 0.0 0.00 0.00 0.00 80 1010.2
20260505200043 51 5 0.0 0.0 0.00 0.00 0.00 79 1010.1
20260505194535 52 5 0.0 0.0 0.00 0.00 0.00 78 1010.0
20260505193037 52 5 0.0 0.0 0.00 0.00 0.00 77 1009.7
20260505191542 52 5 0.0 0.0 0.00 0.00 0.00 78 1009.6
20260505190040 53 5 0.0 0.0 0.00 0.00 0.00 78 1009.8
20260505184534 53 5 0.0 0.0 0.00 0.00 0.00 77 1009.7
20260505183049 53 5 0.0 0.0 0.00 0.00 0.00 76 1009.6
20260505181532 54 5 0.0 0.0 0.00 0.00 0.00 75 1009.6
20260505180035 55 5 0.0 0.0 0.00 0.00 0.00 73 1009.6
20260505174530 55 5 0.0 0.0 0.00 0.00 0.00 73 1009.6
20260505173030 56 5 0.0 0.0 0.00 0.00 0.00 71 1009.6
20260505171529 56 5 0.0 0.0 0.00 0.00 0.00 70 1009.6
20260505170029 57 5 0.0 0.0 0.00 0.00 0.00 69 1009.6
20260505164528 57 5 0.0 0.0 0.00 0.00 0.00 68 1009.5
20260505163031 58 5 0.0 0.0 0.00 0.00 0.00 68 1009.4
20260505161528 58 5 0.0 0.0 0.00 0.00 0.00 68 1009.5